Regional Weather Roundup
Issued by NWS Midland/Odessa, TX

Home | Current Version | Previous Version | Text Only | Print | Product List | Glossary On
Versions: 1 2 3 4 5 6 7 8 9 10 11 12 13 14 15 16 17 18 19 20 21 22 23 24 25 26 27 28 29 30 31 32 33 34 35 36 37 38 39 40 41 42 43 44 45 46 47 48 49 50
000
ASUS44 KMAF 271610
RWRMAF
MIDLAND AREA WEATHER ROUNDUP
NATIONAL WEATHER SERVICE MIDLAND TX
1000 AM CST MON FEB 27 2017

...IN SOUTHWEST TEXAS AND SOUTHEAST NEW MEXICO...

CITY           SKY/WX    TMP DP  RH WIND       PRES   REMARKS
ALPINE         SUNNY     67  20  16 SW17      30.09S
ANDREWS        FAIR      64  28  25 SW15      29.97F
ARTESIA        SUNNY     54  27  35 S13       29.94S
BIG SPRING     SUNNY     59  40  48 S9        29.99S
CARLSBAD       SUNNY     58  24  27 SE8       29.94F
DRYDEN           N/A     68  46  45 SW9       29.96R
FORT STOCKTON  SUNNY     67  24  19 SW10      29.99R
GUAD PASS      SUNNY     54  23  30 W40G47    30.00R
HOBBS          SUNNY     63  19  19 S15       29.96F
MARFA          SUNNY     61  21  21 S8        30.08R
MIDLAND AIRPK  SUNNY     67  33  27 W6        29.97S
MIDLAND INTL   SUNNY     65  33  30 SW8       29.96S
ODESSA         MOSUNNY   64  33  31 S3        29.97S
PECOS          SUNNY     61  24  24 W10       29.98S
PRESIDIO       FAIR      67  17  15 SE5       30.03S
SEMINOLE       SUNNY     63  25  24 SW16G22   29.96F
SNYDER         SUNNY     58  45  63 S9        29.97R
WINK           SUNNY     65  23  20 W12       29.96S
$$
...OTHER STATIONS IN TEXAS...

CITY           SKY/WX    TMP DP  RH WIND       PRES   REMARKS
ABILENE        CLOUDY    62  60  93 SW13      29.95R
AMARILLO       SUNNY     55  26  32 SW21G28   29.88F
AUSTIN         CLOUDY    74  66  76 S16       29.96S
BROWNSVILLE    PTSUNNY   79  69  71 S17       29.94S
CORPUS CHRISTI PTSUNNY   76  71  85 SE15      29.96R
DALLAS FTW     CLOUDY    68  64  87 S9        29.95S FOG
DEL RIO        CLOUDY    63  60  90 CALM      29.96R FOG
EL PASO        MOSUNNY   50  19  29 S5        30.02R
HOUSTON INT    PTSUNNY   75  68  78 SE10      30.02R
LUBBOCK        SUNNY     52  25  35 SW6       29.93S
SAN ANGELO     CLOUDY    59  56  89 CALM      29.97S FOG
SAN ANTONIO    CLOUDY    69  64  84 SE8       29.98R
WACO           CLOUDY    69  65  86 SE10      29.97S
WICHITA FALLS  NOT AVBL
$$
...OTHER LOCATIONS IN NEW MEXICO...

CITY           SKY/WX    TMP DP  RH WIND       PRES   REMARKS
ALAMAGORDO     SUNNY     55  23  28 S9        30.03R
ALBUQUERQUE    CLOUDY    39  25  57 S6        29.97R WCI  35
CANNON AFB     SUNNY     51  24  34 SW15      29.91S
CLOVIS         SUNNY     52  27  37 SW12      29.91S
HOLLOMAN AFB   SUNNY     55  21  26 CALM      30.05R
ROSWELL        SUNNY     47  25  42 NE5       29.95R
RUIDOSO        SUNNY     46  14  27 SW25G32   29.96R WCI  38
SANTA FE       CLOUDY    37  23  56 VRB6      29.94R WCI  32
TRUTH OR CONSE SUNNY     46  26  45 CALM      29.97R
TUCUMCARI      MOSUNNY   52  26  36 W14       29.88R
$$




USA.gov is the U.S. government's official web portal to all federal, state and local government web resources and services.